Regional Weather Roundup
Issued by NWS

Home | Current Version | Previous Version | Graphics & Text | Print | Product List | Glossary On
Versions: 1 2 3 4 5 6 7 8 9 10 11 12 13 14 15 16 17 18 19 20 21 22 23 24 25 26 27 28 29 30 31 32 33 34 35 36 37 38 39 40 41 42 43 44 45 46 47 48 49 50
000
ASUS43 KDTX 150601
RWRMI
MICHIGAN HOURLY REGIONAL WEATHER ROUNDUP
NATIONAL WEATHER SERVICE DETROIT/PONTIAC MI
100 AM EST FRI DEC 15 2017

NOTE: "FAIR" INDICATES FEW OR NO CLOUDS BELOW 12,000 FEET WITH NO
SIGNIFICANT WEATHER AND/OR OBSTRUCTION TO VISIBILITY.

MIZ047>049-052>055-059>063-066>070-074>076-081>083-150700-
SOUTHEAST LOWER MICHIGAN

CITY           SKY/WX    TMP DP  RH WIND       PRES   REMARKS
ADRIAN         PTCLDY    11   4  73 W5        30.03F WCI   3
6HR MIN TEMP:  10; 6HR MAX TEMP:  14;

ALMA           CLOUDY    14  13  95 S6        29.98F WCI   5
6HR MIN TEMP:   5; 6HR MAX TEMP:  19;

ANN ARBOR      CLOUDY    12   8  84 CALM      30.01F
BAD AXE        FLURRIES  16  12  86 SW5       29.98F WCI   8
6HR MIN TEMP:   1; 6HR MAX TEMP:  16;

CARO           LGT SNOW  13  11  90 CALM      29.98F
DETROIT CITY   CLOUDY    17   9  70 SW6       30.03F WCI   9
6HR MIN TEMP:   6; 6HR MAX TEMP:  17;

DETROIT        FLURRIES  18   7  62 S7        30.04F WCI   9
6HR MIN TEMP:  14; 6HR MAX TEMP:  27; 6HR PCP: TRACE;

FLINT          CLOUDY    17  10  74 SW8       29.99F WCI   7
6HR MIN TEMP:  11; 6HR MAX TEMP:  17; 6HR PCP: TRACE;

GROSSE ILE     CLOUDY    18   8  65 SW7       30.03F WCI   8
6HR MIN TEMP:  14; 6HR MAX TEMP:  18;

HILLSDALE      CLOUDY    14   7  73 SW3       29.98F
HOWELL         FLURRIES  16  13  86 SW3       29.99F
6HR MIN TEMP:  15; 6HR MAX TEMP:  17;


CITY           SKY/WX    TMP DP  RH WIND       PRES   REMARKS
JACKSON        PTCLDY    17  11  77 S5        29.99F WCI  10
6HR MIN TEMP:  14; 6HR MAX TEMP:  20; 6HR PCP: TRACE;

LAMBERTVILLE   CLOUDY    14   8  76 S3        30.03F
6HR MIN TEMP:   3; 6HR MAX TEMP:  14;

LANSING        CLOUDY    19  15  84 SW5       30.00F WCI  12
6HR MIN TEMP:  17; 6HR MAX TEMP:  20; 6HR PCP: TRACE;

LAPEER         CLOUDY    17  11  79 SW5       29.99F WCI  10
6HR MIN TEMP:   1; 6HR MAX TEMP:  17;

MASON          CLOUDY    19  13  77 SW3       29.99F
6HR MIN TEMP:  16; 6HR MAX TEMP:  19;

MONROE         CLOUDY    11   6  80 CALM      30.04F
6HR MIN TEMP:   6; 6HR MAX TEMP:  12;

MT. CLEMENS    FLURRIES  16  14  93 SW5       30.00F WCI   9
6HR MIN TEMP:   3; 6HR MAX TEMP:  15;

PONTIAC        FLURRIES  15  11  83 SW5       29.97F WCI   8
6HR MIN TEMP:   5; 6HR MAX TEMP:  15; 6HR PCP: TRACE;

PORT HOPE        N/A     17  11  77 VRB5      29.96F WCI  10
6HR MIN TEMP:  11; 6HR MAX TEMP:  18;

PORT HURON     FLURRIES   9   5  85 CALM      30.02F
TRI CITIES     PTCLDY    12  11  95 S8        29.99F WCI   0
6HR MIN TEMP:  11; 6HR MAX TEMP:  18; 6HR PCP: TRACE;

MIDLAND        CLOUDY    17  12  83 S6        29.97F WCI   8
6HR MIN TEMP:  12; 6HR MAX TEMP:  19;

TROY           FLURRIES  18  10  73 SW3       30.03F
$$
MIZ043>046-050>051-056>058-064>065-071>073-077>080-150700-
SOUTHWEST LOWER MICHIGAN

CITY           SKY/WX    TMP DP  RH WIND       PRES   REMARKS
BATTLE CREEK   CLOUDY    20  15  81 S9        29.98F WCI   9
6HR MIN TEMP:  19; 6HR MAX TEMP:  20; 6HR PCP: TRACE;

BENTON HARBOR  CLOUDY    22  15  75 SE3       30.00F
6HR MIN TEMP:  19; 6HR MAX TEMP:  25;

BIG RAPIDS     FLURRIES  18  15  87 S3        29.92F
6HR MIN TEMP:  13; 6HR MAX TEMP:  18;

COLDWATER      CLOUDY    16  11  80 SW3       30.00F
6HR MIN TEMP:  13; 6HR MAX TEMP:  20;

HOLLAND        CLOUDY    21  17  84 S6        29.98F WCI  13
6HR MIN TEMP:  21; 6HR MAX TEMP:  25;

GRAND RAPIDS   CLOUDY    20  16  84 S7        29.97F WCI  11
6HR MIN TEMP:  19; 6HR MAX TEMP:  21; 6HR PCP: TRACE;

IONIA          CLOUDY    19  16  88 S5        29.96F WCI  12
6HR MIN TEMP:  18; 6HR MAX TEMP:  20;

KALAMAZOO      CLOUDY    20  15  81 SW10      29.99F WCI   9
6HR MIN TEMP:  18; 6HR MAX TEMP:  21; 6HR PCP: TRACE;

LUDINGTON      FLURRIES  26  18  71 W7        29.92F WCI  18
6HR MIN TEMP:  22; 6HR MAX TEMP:  26;

MARSHALL       CLOUDY    16  12  85 CALM      29.98F
6HR MIN TEMP:  16; 6HR MAX TEMP:  19;

MOUNT PLEASANT CLOUDY    18  14  84 S3        29.96F
6HR MIN TEMP:  18; 6HR MAX TEMP:  21;

MUSKEGON       CLOUDY    22  16  78 E3        29.96F
6HR MIN TEMP:  21; 6HR MAX TEMP:  25; 6HR PCP: TRACE;

SOUTH HAVEN    CLOUDY    24  17  76 S6        29.99F WCI  16
$$
MIZ016>042-150700-
NORTHERN LOWER MICHIGAN

CITY           SKY/WX    TMP DP  RH WIND       PRES   REMARKS
ALPENA         MOCLDY    18  12  77 S3        29.91F
6HR MIN TEMP:  16; 6HR MAX TEMP:  21;

BEAVER ISLAND  LGT SNOW  22  20  95 CALM      29.85F
6HR MIN TEMP:  21; 6HR MAX TEMP:  25;

BELLAIRE       FLURRIES  21  18  88 S6        29.90F WCI  14
6HR MIN TEMP:  21; 6HR MAX TEMP:  23;

CADILLAC       LGT SNOW  17  14  90 SW7       29.87F WCI   7
CHARLEVOIX     LGT SNOW  22  19  89 S5        29.89F WCI  16
6HR MIN TEMP:  22; 6HR MAX TEMP:  25;

FRANKFORT      LGT SNOW  27  19  73 W7        29.90F WCI  19
GAYLORD        CLOUDY    16  11  80 S7        29.84F WCI   6
6HR MIN TEMP:  16; 6HR MAX TEMP:  18; 6HR PCP: TRACE;

GRAYLING       CLOUDY    18  12  78 S5        29.88F WCI  11
6HR MIN TEMP:  17; 6HR MAX TEMP:  19;

HARBOR SPRINGS LGT SNOW  20  18  91 S3        29.87F
HOUGHTON LAKE  FLURRIES  17  11  77 S7        29.90F WCI   8
6HR MIN TEMP:  16; 6HR MAX TEMP:  19; 6HR PCP: TRACE;

MANISTEE       LGT SNOW  25  19  78 SW7       29.91F WCI  17
OSCODA         CLOUDY    17  10  75 SW9       29.93F WCI   6
6HR MIN TEMP:  16; 6HR MAX TEMP:  17;

PELLSTON       LGT SNOW  19  15  84 SE3       29.87F FOG
6HR MIN TEMP:  16; 6HR MAX TEMP:  22; 6HR PCP: TRACE;

ROGERS CITY    CLOUDY    18  14  86 SW8       29.90F WCI   7
TRAVERSE CITY  FLURRIES  20  15  81 S5        29.89F WCI  13
6HR MIN TEMP:  20; 6HR MAX TEMP:  22; 6HR PCP: TRACE;

$$
MIZ007>008-015-150700-
EASTERN UPPER MICHIGAN

CITY           SKY/WX    TMP DP  RH WIND       PRES   REMARKS
KINROSS        FLURRIES  17  11  77 CALM      29.85F
6HR MIN TEMP:  17; 6HR MAX TEMP:  18;

MACKINAC ISLAN CLOUDY    24  15  67 W5        29.85F WCI  18
6HR MIN TEMP:  22; 6HR MAX TEMP:  24;

NEWBERRY       FLURRIES  17  14  88 SW5       29.83F WCI  10
6HR MIN TEMP:  17; 6HR MAX TEMP:  18;

S. S. MARIE    FLURRIES  16  12  84 SE3       29.85F
6HR MIN TEMP:  11; 6HR MAX TEMP:  17; 6HR PCP:  0.06;

MUNISING         N/A     18  15  88 S7        29.83F WCI   9
6HR MIN TEMP:  18; 6HR MAX TEMP:  20;

$$
MIZ004>006-011>014-085-150700-
CENTRAL UPPER MICHIGAN

CITY           SKY/WX    TMP DP  RH WIND       PRES   REMARKS
MANISTIQUE     LGT SNOW  17  10  74 W5        29.85F WCI  10
6HR MIN TEMP:  13; 6HR MAX TEMP:  19;

ESCANABA       LGT SNOW  17  13  84 SW5       29.86F FOG     WCI  10
6HR MIN TEMP:  14; 6HR MAX TEMP:  18; 6HR PCP: TRACE;

MENOMINEE      LGT SNOW  20  17  88 SW9       29.88F FOG     WCI   9
6HR MIN TEMP:  19; 6HR MAX TEMP:  20; 6HR PCP: TRACE;

$$
MIZ001>003-009>011-084-150700-
WESTERN UPPER MICHIGAN

CITY           SKY/WX    TMP DP  RH WIND       PRES   REMARKS
IRON MOUNTAIN  LGT SNOW  17  13  84 VRB3      29.80F FOG
6HR MIN TEMP:  16; 6HR MAX TEMP:  17; 6HR PCP: TRACE;

HOUGHTON       LGT SNOW  19  15  84 CALM      29.76F VSB 1
6HR MIN TEMP:  19; 6HR MAX TEMP:  20; 6HR PCP:  0.07;

COPPER HARBOR    N/A     23  18  81 NE9       29.78F WCI  13
6HR MIN TEMP:  18; 6HR MAX TEMP:  24; 6HR PCP:  0.07;

IRONWOOD       LGT SNOW  15  12  88 W13       29.82F FOG     WCI   1
6HR MIN TEMP:  15; 6HR MAX TEMP:  16;

$$

ABBREVIATIONS USED IN REMARKS
   TC - TEMPERATURE IN CELSIUS
  WCI - WIND CHILL INDEX
   HX - HEAT INDEX
  VSB - VISIBILITY





USA.gov is the U.S. government's official web portal to all federal, state and local government web resources and services.